KD0MAC Weather Reports


time (UTC)temp
C
wind
direction
speed
KPH
gust
KPH
rain 1hr
cm
rain 24hr
cm
rain mn
cm
humidity
%
barometer
mb
20260505171634 8 74 3.2 4.8 0.00 0.00 0.00 68 1014.6
20260505171133 8 22 0.0 3.2 0.00 0.00 0.00 69 1014.6
20260505170634 8 92 0.0 3.2 0.00 0.00 0.00 69 1014.6
20260505170133 8 84 0.0 4.8 0.00 0.00 0.00 70 1014.6
20260505165633 8 64 3.2 4.8 0.00 0.00 0.00 70 1014.6
20260505165134 8 77 1.6 4.8 0.00 0.00 0.00 71 1014.6
20260505164634 8 10 0.0 6.4 0.00 0.00 0.00 72 1014.6
20260505164136 8 100 3.2 6.4 0.00 0.00 0.00 72 1014.6
20260505163636 8 245 1.6 6.4 0.00 0.00 0.00 71 1014.6
20260505163134 8 90 3.2 6.4 0.00 0.00 0.00 72 1014.6
20260505162634 8 75 0.0 9.7 0.00 0.00 0.00 75 1014.2
20260505162133 8 78 1.6 9.7 0.00 0.00 0.00 76 1014.2
20260505161636 8 57 1.6 4.8 0.00 0.00 0.00 79 1014.6
20260505161134 8 342 1.6 6.4 0.00 0.00 0.00 80 1014.6
20260505160633 8 272 1.6 6.4 0.00 0.00 0.00 79 1014.6
20260505160133 8 88 3.2 4.8 0.00 0.00 0.00 78 1014.6
20260505153134 7 103 3.2 8.0 0.00 0.00 0.00 79 1014.6
20260505152637 7 84 0.0 8.0 0.00 0.00 0.00 81 1014.6
20260505152134 7 75 1.6 3.2 0.00 0.00 0.00 82 1014.6
20260505151633 7 74 0.0 3.2 0.00 0.00 0.00 83 1014.6
20260505151134 7 122 1.6 4.8 0.00 0.00 0.00 83 1014.6
20260505150634 7 328 1.6 4.8 0.00 0.00 0.00 83 1014.2
20260505150134 7 281 3.2 4.8 0.00 0.00 0.00 84 1014.6
20260505140634 7 277 3.2 6.4 0.00 0.00 0.00 83 1013.9
20260505140134 7 167 3.2 4.8 0.00 0.00 0.00 83 1013.9
20260505130134 7 32 1.6 4.8 0.00 0.00 0.00 80 1012.5
20260505124633 7 84 1.6 8.0 0.00 0.00 0.00 80 1012.2
20260505124133 7 101 3.2 6.4 0.00 0.00 0.00 80 1012.2
20260505123634 7 222 3.2 6.4 0.00 0.00 0.00 79 1011.9
20260505123134 7 8 3.2 4.8 0.00 0.00 0.00 78 1011.9
20260505122633 7 344 3.2 6.4 0.00 0.00 0.00 78 1011.5
20260505122134 7 134 4.8 6.4 0.00 0.00 0.00 77 1011.5
20260505121633 7 85 1.6 6.4 0.00 0.00 0.00 76 1011.5
20260505121133 7 95 4.8 11.3 0.00 0.00 0.00 75 1011.2
20260505120633 7 104 4.8 9.7 0.00 0.00 0.00 74 1011.2
20260505120134 7 148 4.8 9.7 0.00 0.00 0.00 74 1010.8
20260505115633 7 62 4.8 8.0 0.00 0.00 0.00 73 1010.8
20260505115133 7 59 6.4 9.7 0.00 0.00 0.00 73 1010.8
20260505114634 7 61 4.8 11.3 0.00 0.00 0.00 73 1010.8
20260505114133 7 104 3.2 9.7 0.00 0.00 0.00 73 1010.8
20260505113634 7 158 4.8 9.7 0.00 0.00 0.00 72 1010.5
20260505113133 7 74 4.8 8.0 0.00 0.00 0.00 72 1010.8
20260505112634 7 109 0.0 12.9 0.00 0.00 0.00 72 1010.5
20260505112133 7 358 6.4 12.9 0.00 0.00 0.00 72 1010.5
20260505111634 7 58 4.8 11.3 0.00 0.00 0.00 72 1010.5
20260505111133 7 88 4.8 9.7 0.00 0.00 0.00 72 1010.5
20260505110636 7 57 3.2 8.0 0.00 0.00 0.00 72 1010.5
20260505110133 8 87 4.8 9.7 0.00 0.00 0.00 72 1010.2
20260505102134 8 73 6.4 12.9 0.00 0.00 0.00 71 1010.8
20260505101636 8 92 6.4 11.3 0.00 0.00 0.00 72 1010.8
20260505101134 8 35 4.8 11.3 0.00 0.00 0.00 72 1010.5
20260505100633 8 55 8.0 11.3 0.00 0.00 0.00 72 1010.5
20260505100133 8 125 6.4 11.3 0.00 0.00 0.00 72 1010.5
20260505095633 8 70 6.4 12.9 0.00 0.00 0.00 72 1010.5
20260505095133 8 325 6.4 14.5 0.00 0.00 0.00 71 1010.5
20260505094634 8 101 8.0 14.5 0.00 0.00 0.00 70 1010.2
20260505094133 8 101 6.4 14.5 0.00 0.00 0.00 69 1010.2
20260505093633 8 78 6.4 11.3 0.00 0.00 0.00 68 1010.2
20260505093133 9 326 8.0 12.9 0.00 0.00 0.00 67 1010.2
20260505092633 9 78 6.4 9.7 0.00 0.00 0.00 66 1010.2
20260505092135 10 312 8.0 14.5 0.00 0.00 0.00 65 1010.2
20260505091637 10 51 4.8 8.0 0.00 0.00 0.00 63 1009.8
20260505091133 10 93 6.4 11.3 0.00 0.00 0.00 61 1009.8
20260505090634 10 95 8.0 12.9 0.00 0.00 0.00 61 1009.8
20260505090133 10 92 8.0 12.9 0.00 0.00 0.00 60 1009.8
20260505085633 10 50 4.8 12.9 0.00 0.00 0.00 60 1009.8
20260505085133 10 58 8.0 11.3 0.00 0.00 0.00 60 1009.8
20260505084633 10 78 6.4 11.3 0.00 0.00 0.00 60 1009.8
20260505084136 10 91 4.8 9.7 0.00 0.00 0.00 60 1009.8
20260505083634 10 14 3.2 9.7 0.00 0.00 0.00 60 1009.5
20260505083133 10 277 4.8 6.4 0.00 0.00 0.00 59 1009.5
20260505082634 10 108 4.8 6.4 0.00 0.00 0.00 56 1009.1
20260505082135 10 17 3.2 12.9 0.00 0.00 0.00 54 1009.1
20260505081633 11 74 4.8 9.7 0.00 0.00 0.00 54 1008.8
20260505081134 11 126 4.8 11.3 0.00 0.00 0.00 53 1008.8
20260505080635 11 75 8.0 12.9 0.00 0.00 0.00 53 1008.8
20260505080133 11 94 6.4 11.3 0.00 0.00 0.00 53 1008.5
20260505075634 11 54 6.4 11.3 0.00 0.00 0.00 52 1008.8
20260505075134 11 76 6.4 17.7 0.00 0.00 0.00 52 1008.8
20260505074633 11 353 6.4 12.9 0.00 0.00 0.00 53 1008.5
20260505074135 11 19 6.4 12.9 0.00 0.00 0.00 53 1008.8
20260505073633 11 83 4.8 11.3 0.00 0.00 0.00 53 1009.1
20260505073135 11 65 3.2 9.7 0.00 0.00 0.00 53 1009.1
20260505072634 11 66 4.8 9.7 0.00 0.00 0.00 53 1008.8
20260505072133 11 2 4.8 17.7 0.00 0.00 0.00 53 1008.8
20260505071633 11 27 9.7 17.7 0.00 0.00 0.00 53 1008.5
20260505071135 11 64 4.8 14.5 0.00 0.00 0.00 53 1008.5
20260505070638 11 65 6.4 14.5 0.00 0.00 0.00 53 1008.5
20260505070134 11 26 4.8 11.3 0.00 0.00 0.00 53 1008.5
20260505065634 11 67 4.8 11.3 0.00 0.00 0.00 53 1008.5
20260505065133 11 81 6.4 12.9 0.00 0.00 0.00 52 1008.5
20260505064633 11 323 3.2 12.9 0.00 0.00 0.00 52 1008.1
20260505064134 11 87 6.4 14.5 0.00 0.00 0.00 52 1008.1
20260505063633 11 108 8.0 14.5 0.00 0.00 0.00 52 1008.1
20260505063133 11 60 6.4 12.9 0.00 0.00 0.00 52 1007.8
20260505062634 11 126 6.4 17.7 0.00 0.00 0.00 51 1007.8
20260505062133 11 103 6.4 17.7 0.00 0.00 0.00 51 1007.8
20260505061633 12 52 8.0 11.3 0.00 0.00 0.00 51 1007.8
20260505061133 12 10 6.4 12.9 0.00 0.00 0.00 51 1007.8
20260505060633 12 21 9.7 16.1 0.00 0.00 0.00 50 1007.8
20260505060134 12 126 6.4 17.7 0.00 0.00 0.00 50 1007.8
20260505055634 12 48 9.7 20.9 0.00 0.00 0.00 49 1007.8
20260505055134 12 69 11.3 20.9 0.00 0.00 0.00 49 1007.8
20260505054634 12 63 11.3 20.9 0.00 0.00 0.00 48 1007.5
20260505054134 12 72 9.7 20.9 0.00 0.00 0.00 48 1007.8
20260505053633 12 316 12.9 19.3 0.00 0.00 0.00 48 1007.8
20260505053134 13 61 8.0 16.1 0.00 0.00 0.00 47 1007.8
20260505052633 13 52 6.4 14.5 0.00 0.00 0.00 47 1007.8
20260505052134 13 56 8.0 17.7 0.00 0.00 0.00 47 1007.5
20260505051633 13 356 9.7 24.1 0.00 0.00 0.00 47 1007.5
20260505051134 13 354 8.0 14.5 0.00 0.00 0.00 46 1007.5
20260505050634 13 81 11.3 16.1 0.00 0.00 0.00 46 1007.5
20260505050134 14 20 9.7 17.7 0.00 0.00 0.00 46 1007.5
20260505041633 15 43 6.4 9.7 0.00 0.00 0.00 46 1006.4
20260505041133 15 59 6.4 12.9 0.00 0.00 0.00 46 1006.4
20260505040633 15 114 9.7 14.5 0.00 0.00 0.00 47 1006.4
20260505040134 15 136 4.8 12.9 0.00 0.00 0.00 48 1006.4
20260505035634 15 25 6.4 12.9 0.00 0.00 0.00 49 1006.4
20260505035133 15 38 4.8 11.3 0.00 0.00 0.00 50 1006.4
20260505034633 15 72 6.4 12.9 0.00 0.00 0.00 51 1006.4
20260505034134 15 237 4.8 14.5 0.00 0.00 0.00 51 1006.4
20260505033634 16 83 8.0 14.5 0.00 0.00 0.00 51 1006.1
20260505033133 16 123 6.4 12.9 0.00 0.00 0.00 51 1006.1
20260505032633 16 56 6.4 11.3 0.00 0.00 0.00 50 1006.1
20260505032133 16 65 6.4 14.5 0.00 0.00 0.00 50 1006.1
20260505031633 16 64 8.0 14.5 0.00 0.00 0.00 49 1005.8
20260505031133 16 136 4.8 12.9 0.00 0.00 0.00 49 1005.4
20260505030633 16 70 6.4 12.9 0.00 0.00 0.00 50 1005.4
20260505030133 17 100 6.4 14.5 0.00 0.00 0.00 50 1005.1
20260505025634 17 85 9.7 17.7 0.00 0.00 0.00 51 1005.1
20260505025133 17 69 8.0 17.7 0.00 0.00 0.00 51 1005.1
20260505024633 17 23 9.7 17.7 0.00 0.00 0.00 51 1004.7
20260505024134 17 62 8.0 17.7 0.00 0.00 0.00 51 1004.7
20260505023633 17 355 9.7 20.9 0.00 0.00 0.00 50 1004.7
20260505023133 17 45 8.0 17.7 0.00 0.00 0.00 50 1004.4
20260505022634 17 87 9.7 17.7 0.00 0.00 0.00 50 1004.4
20260505022134 17 48 9.7 17.7 0.00 0.00 0.00 50 1004.1
20260505021636 17 65 8.0 17.7 0.00 0.00 0.00 50 1004.1
20260505021133 18 19 8.0 19.3 0.00 0.00 0.00 50 1004.1
20260505020634 18 82 8.0 14.5 0.00 0.00 0.00 51 1004.1
20260505020134 18 46 8.0 16.1 0.00 0.00 0.00 51 1004.1
20260505015634 18 24 9.7 20.9 0.00 0.00 0.00 50 1003.7
20260505015133 18 161 6.4 20.9 0.00 0.00 0.00 49 1003.4
20260505014634 18 332 8.0 12.9 0.00 0.00 0.00 48 1003.4
20260505014134 19 63 6.4 14.5 0.00 0.00 0.00 47 1003.7
20260505013633 19 297 8.0 16.1 0.00 0.00 0.00 47 1003.4
20260505013134 19 95 8.0 16.1 0.00 0.00 0.00 47 1003.4
20260505012633 20 53 9.7 16.1 0.00 0.00 0.00 46 1003.4
20260505012134 20 18 11.3 20.9 0.00 0.00 0.00 45 1003.4
20260505011633 20 113 8.0 17.7 0.00 0.00 0.00 44 1003.0
20260505011133 20 347 6.4 14.5 0.00 0.00 0.00 43 1003.0
20260505010633 21 118 8.0 12.9 0.00 0.00 0.00 42 1003.4
20260505010134 21 55 6.4 17.7 0.00 0.00 0.00 40 1003.0
20260505005634 21 15 8.0 17.7 0.00 0.00 0.00 38 1002.7
20260505005133 22 323 4.8 11.3 0.00 0.00 0.00 37 1002.7
20260505004633 22 74 3.2 11.3 0.00 0.00 0.00 36 1002.7
20260505004134 22 67 6.4 11.3 0.00 0.00 0.00 36 1002.7
20260505003633 22 113 3.2 6.4 0.00 0.00 0.00 36 1002.7
20260505003133 22 84 1.6 9.7 0.00 0.00 0.00 36 1002.4
20260505002633 22 67 1.6 9.7 0.00 0.00 0.00 36 1002.4
20260505002133 22 56 3.2 14.5 0.00 0.00 0.00 36 1002.7
20260505001633 23 58 4.8 14.5 0.00 0.00 0.00 35 1002.7
20260505001133 24 316 4.8 12.9 0.00 0.00 0.00 33 1003.0
20260505000634 25 6 6.4 12.9 0.00 0.00 0.00 31 1002.7
20260505000134 26 63 4.8 12.9 0.00 0.00 0.00 29 1002.7
20260504235633 25 63 4.8 12.9 0.00 0.00 0.00 29 1002.7
20260504235134 25 119 6.4 12.9 0.00 0.00 0.00 29 1002.7
20260504234642 25 324 6.4 9.7 0.00 0.00 0.00 31 1003.0
20260504234133 25 15 4.8 11.3 0.00 0.00 0.00 31 1003.0
20260504233634 25 274 6.4 11.3 0.00 0.00 0.00 29 1003.0
20260504233133 25 246 4.8 9.7 0.00 0.00 0.00 28 1003.0
20260504232633 25 49 1.6 8.0 0.00 0.00 0.00 27 1002.7
20260504232133 25 95 3.2 12.9 0.00 0.00 0.00 26 1002.7
20260504231633 25 217 4.8 14.5 0.00 0.00 0.00 25 1002.7
20260504231134 25 60 9.7 14.5 0.00 0.00 0.00 25 1002.7
20260504230633 25 306 11.3 17.7 0.00 0.00 0.00 25 1002.4
20260504230134 25 326 6.4 12.9 0.00 0.00 0.00 24 1002.4
20260504225636 26 115 1.6 3.2 0.00 0.00 0.00 25 1002.7
20260504225133 26 87 0.0 1.6 0.00 0.00 0.00 26 1002.4
20260504224634 26 70 0.0 11.3 0.00 0.00 0.00 26 1002.4
20260504224133 26 94 1.6 11.3 0.00 0.00 0.00 25 1002.4
20260504223633 26 119 6.4 12.9 0.00 0.00 0.00 25 1002.4
20260504223134 26 136 4.8 12.9 0.00 0.00 0.00 24 1002.4
20260504222635 26 97 8.0 14.5 0.00 0.00 0.00 24 1002.4
20260504222134 27 165 6.4 14.5 0.00 0.00 0.00 24 1002.4
20260504221634 27 146 6.4 12.9 0.00 0.00 0.00 23 1002.4
20260504221139 27 83 4.8 12.9 0.00 0.00 0.00 23 1002.4
20260504220633 27 84 3.2 12.9 0.00 0.00 0.00 23 1002.4
20260504220133 27 107 3.2 11.3 0.00 0.00 0.00 23 1002.4
20260504215633 27 123 4.8 12.9 0.00 0.00 0.00 22 1002.4
20260504215133 28 114 1.6 11.3 0.00 0.00 0.00 22 1002.4
20260504214633 28 183 6.4 11.3 0.00 0.00 0.00 22 1002.7
20260504214135 28 79 4.8 11.3 0.00 0.00 0.00 21 1002.7
20260504213633 29 103 4.8 11.3 0.00 0.00 0.00 20 1002.7
20260504213134 30 122 4.8 11.3 0.00 0.00 0.00 20 1002.7
20260504212633 30 96 3.2 14.5 0.00 0.00 0.00 19 1002.7
20260504212137 31 86 3.2 14.5 0.00 0.00 0.00 19 1002.7
20260504211633 31 121 8.0 14.5 0.00 0.00 0.00 19 1002.7
20260504211135 31 132 6.4 11.3 0.00 0.00 0.00 17 1002.7
20260504210633 32 66 4.8 12.9 0.00 0.00 0.00 18 1002.7
20260504210133 31 82 8.0 12.9 0.00 0.00 0.00 18 1002.7
20260504205633 31 35 6.4 12.9 0.00 0.00 0.00 20 1003.0
20260504205134 31 111 4.8 12.9 0.00 0.00 0.00 18 1003.0
20260504204634 31 114 3.2 11.3 0.00 0.00 0.00 18 1002.7
20260504204134 31 172 3.2 12.9 0.00 0.00 0.00 19 1003.0
20260504203634 31 128 6.4 12.9 0.00 0.00 0.00 18 1003.0
20260504203133 31 135 8.0 12.9 0.00 0.00 0.00 17 1003.0
20260504202634 32 128 1.6 6.4 0.00 0.00 0.00 17 1003.0
20260504202134 32 100 3.2 8.0 0.00 0.00 0.00 17 1003.4
20260504201633 31 131 4.8 6.4 0.00 0.00 0.00 18 1003.4
20260504201133 31 75 3.2 11.3 0.00 0.00 0.00 18 1003.4
20260504200634 31 119 3.2 11.3 0.00 0.00 0.00 18 1003.4
20260504200133 32 85 4.8 11.3 0.00 0.00 0.00 18 1003.4
20260504195633 32 105 3.2 11.3 0.00 0.00 0.00 17 1003.4
20260504195134 31 120 4.8 14.5 0.00 0.00 0.00 18 1003.4
20260504194633 31 87 1.6 6.4 0.00 0.00 0.00 19 1003.4
20260504194134 31 136 3.2 8.0 0.00 0.00 0.00 18 1003.7
20260504193633 31 64 3.2 8.0 0.00 0.00 0.00 18 1003.4
20260504193133 31 151 4.8 8.0 0.00 0.00 0.00 19 1003.7
20260504192633 32 86 4.8 6.4 0.00 0.00 0.00 17 1003.7
20260504192135 32 101 1.6 4.8 0.00 0.00 0.00 17 1003.7
20260504191634 32 105 3.2 4.8 0.00 0.00 0.00 16 1003.7
20260504191133 32 77 3.2 9.7 0.00 0.00 0.00 17 1004.1
20260504190633 32 32 3.2 9.7 0.00 0.00 0.00 18 1004.1
20260504190135 32 105 4.8 9.7 0.00 0.00 0.00 18 1004.1
20260504185635 31 31 3.2 6.4 0.00 0.00 0.00 18 1004.1
20260504185133 30 82 1.6 6.4 0.00 0.00 0.00 20 1004.1
20260504184634 30 55 3.2 6.4 0.00 0.00 0.00 19 1004.4
20260504184133 29 8 3.2 6.4 0.00 0.00 0.00 21 1004.4
20260504183635 29 76 0.0 6.4 0.00 0.00 0.00 22 1004.4
20260504183134 29 233 1.6 8.0 0.00 0.00 0.00 21 1004.4
20260504182636 29 83 0.0 8.0 0.00 0.00 0.00 22 1004.4
20260504182133 29 93 0.0 3.2 0.00 0.00 0.00 22 1004.4
20260504181636 30 67 0.0 4.8 0.00 0.00 0.00 22 1004.4
20260504181136 30 161 1.6 4.8 0.00 0.00 0.00 22 1004.4
20260504180634 30 86 3.2 6.4 0.00 0.00 0.00 21 1004.7
20260504180134 30 84 3.2 6.4 0.00 0.00 0.00 20 1004.7
20260504175635 30 63 3.2 8.0 0.00 0.00 0.00 20 1004.7
20260504175134 30 278 3.2 6.4 0.00 0.00 0.00 20 1004.7
20260504174635 31 295 3.2 8.0 0.00 0.00 0.00 19 1004.7
20260504174136 31 267 1.6 8.0 0.00 0.00 0.00 20 1004.7
20260504173634 31 21 1.6 6.4 0.00 0.00 0.00 21 1004.7
20260504173135 30 151 1.6 6.4 0.00 0.00 0.00 20 1004.7
20260504172635 29 0 4.8 6.4 0.00 0.00 0.00 22 1004.7
20260504172133 28 67 0.0 6.4 0.00 0.00 0.00 23 1005.1